DW8569 Weather Reports


time (UTC)temp
C
wind
direction
speed
KPH
gust
KPH
rain 1hr
cm
rain 24hr
cm
rain mn
cm
humidity
%
barometer
mb
20260505124522 17 140 0.0 1.6 0.00 0.00 0.00 58 1010.5
20260505123019 17 138 0.0 3.2 0.00 0.00 0.00 57 1010.5
20260505121515 17 138 0.0 3.2 0.00 0.00 0.00 56 1010.4
20260505120033 16 138 0.0 4.8 0.00 0.00 0.00 54 1010.4
20260505114510 15 140 0.0 8.0 0.00 0.00 0.00 51 1010.3
20260505113005 15 208 0.0 1.6 0.00 0.00 0.00 47 1010.5
20260505111502 15 209 0.0 1.6 0.00 0.00 0.00 46 1010.4
20260505101555 13 217 0.0 3.2 0.00 0.00 0.00 46 1010.4
20260505100053 13 218 0.0 0.0 0.00 0.00 0.00 46 1009.8
20260505094552 13 218 0.0 0.0 0.00 0.00 0.00 46 1009.5
20260505093054 13 218 0.0 0.0 0.00 0.00 0.00 46 1009.3
20260505091551 13 218 0.0 3.2 0.00 0.00 0.00 46 1009.3
20260505090051 12 221 0.0 1.6 0.00 0.00 0.00 46 1009.2
20260505084550 12 221 0.0 0.0 0.00 0.00 0.00 46 1009.3
20260505083050 12 221 0.0 0.0 0.00 0.00 0.00 46 1009.4
20260505081548 12 221 0.0 0.0 0.00 0.00 0.00 48 1009.4
20260505080047 12 221 0.0 0.0 0.00 0.00 0.00 53 1009.5
20260505074546 12 221 0.0 0.0 0.00 0.00 0.00 57 1009.4
20260505073059 12 221 0.0 0.0 0.00 0.00 0.00 62 1009.4
20260505071539 13 221 0.0 0.0 0.00 0.00 0.00 68 1009.2
20260505070038 13 221 0.0 0.0 0.00 0.00 0.00 70 1009.3
20260505064541 13 221 0.0 0.0 0.00 0.00 0.00 73 1009.3
20260505063034 13 221 0.0 0.0 0.00 0.00 0.00 75 1009.3
20260505061546 13 221 0.0 0.0 0.00 0.00 0.00 77 1009.3
20260505060034 13 221 0.0 0.0 0.00 0.00 0.00 78 1009.3
20260505054551 14 221 0.0 4.8 0.00 0.00 0.00 79 1009.4
20260505053031 14 252 0.0 0.0 0.00 0.00 0.00 80 1009.4
20260505051526 14 252 0.0 1.6 0.00 0.00 0.00 81 1009.6
20260505041520 14 254 0.0 3.2 0.00 0.00 0.00 86 1009.9
20260505040018 14 254 0.0 1.6 0.00 0.00 0.00 87 1010.0
20260505034517 15 254 0.0 0.0 0.00 0.00 0.00 89 1010.0
20260505033020 15 254 0.0 0.0 0.00 0.00 0.00 91 1010.1
20260505031536 15 253 0.0 0.0 0.00 0.00 0.00 92 1010.2
20260505030016 15 253 0.0 3.2 0.00 0.00 0.00 93 1010.3
20260505024529 15 253 0.0 3.2 0.00 0.00 0.00 94 1010.3
20260505023015 16 253 0.0 4.8 0.00 0.00 0.00 94 1010.4
20260505021518 16 253 0.0 1.6 0.00 0.00 0.00 94 1010.4
20260505020026 16 252 0.0 1.6 0.00 0.00 0.00 94 1010.6
20260505014516 16 252 0.0 0.0 0.00 0.00 0.00 94 1010.3
20260505013013 17 252 0.0 1.6 0.00 0.00 0.00 94 1010.3
20260505011521 17 252 0.0 3.2 0.00 0.00 0.00 94 1010.0
20260505010014 17 252 0.0 1.6 0.00 0.00 0.00 94 1009.9
20260505004529 18 251 0.0 4.8 0.00 0.00 0.00 94 1009.6
20260505003012 18 244 0.0 0.0 0.00 0.00 0.00 89 1009.5
20260505001511 19 244 0.0 0.0 0.00 0.00 0.00 85 1009.1
20260505000018 20 244 0.0 0.0 0.00 0.00 0.00 84 1008.9
20260504234510 20 244 0.0 0.0 0.00 0.00 0.00 83 1008.8
20260504233010 20 244 0.0 0.0 0.00 0.00 0.00 83 1008.5
20260504231509 21 257 0.0 0.0 0.00 0.00 0.00 81 1008.4
20260504230009 21 257 0.0 1.6 0.00 0.00 0.00 80 1008.3
20260504224510 21 261 0.0 1.6 0.00 0.00 0.00 80 1008.3
20260504223008 22 263 0.0 6.4 0.00 0.00 0.00 79 1008.2
20260504221509 22 258 0.0 8.0 0.00 0.00 0.00 78 1008.3
20260504220011 22 121 0.0 3.2 0.00 0.00 0.00 78 1008.4
20260504214504 22 162 0.0 4.8 0.00 0.00 0.00 78 1008.6
20260504213004 22 151 0.0 1.6 0.00 0.00 0.00 77 1008.7
20260504211503 22 121 1.6 12.9 0.00 0.00 0.00 77 1008.8
20260504210002 22 132 0.0 4.8 0.00 0.00 0.00 76 1008.7
20260504204503 22 174 0.0 0.0 0.00 0.00 0.00 78 1008.8
20260504203113 22 173 0.0 4.8 0.00 0.00 0.00 77 1008.8
20260504201601 22 268 0.0 1.6 0.00 0.00 0.00 78 1008.8
20260504200058 22 160 0.0 11.3 0.00 0.00 0.00 77 1009.0
20260504194556 22 125 0.0 8.0 0.00 0.00 0.00 78 1009.0
20260504193055 22 128 0.0 4.8 0.00 0.00 0.00 79 1009.1
20260504191604 22 123 0.0 3.2 0.00 0.00 0.00 78 1009.3
20260504190054 22 129 0.0 4.8 0.00 0.00 0.00 77 1009.5
20260504184549 22 127 0.0 11.3 0.00 0.00 0.00 78 1009.8
20260504183047 22 138 0.0 8.0 0.00 0.00 0.00 77 1010.0
20260504181549 22 210 0.0 8.0 0.00 0.00 0.00 76 1010.0
20260504180044 23 122 0.0 6.4 0.00 0.00 0.00 76 1010.3
20260504174543 23 137 0.0 8.0 0.00 0.00 0.00 77 1010.5
20260504173042 23 126 0.0 1.6 0.00 0.00 0.00 76 1010.7
20260504171539 23 134 0.0 4.8 0.00 0.00 0.00 77 1010.8
20260504140107 17 138 0.0 1.6 0.00 0.00 0.00 78 1012.7